Miscellaneous Local Product
Issued by NWS North Platte, NE

Home | Current Version | Previous Version | Text Only | Print | Product List | Glossary On
Versions: 1 2 3 4 5 6 7 8 9 10 11 12 13 14 15 16 17 18 19 20 21 22 23 24 25 26 27 28 29 30 31 32 33 34 35 36 37 38 39 40 41 42 43 44 45 46 47 48 49 50
000
AXUS43 KLBF 211910
MISLBF


WESTERN AND NORTH CENTRAL NEBRASKA HOURLY WEATHER ROUNDUP
NATIONAL WEATHER SERVICE NORTH PLATTE NE
200 PM CDT SUN SEP 21 2014

***STATIONS NOT REPORTING VARIABLES SUCH AS SKY/WEATHER OR
PRESSURE ARE PROVIDED BY THE NEBRASKA DEPARTMENT OF
ROADS...RAWS...AND APRS NETWORKS...AND ARE NOT UNDER
NATIONAL WEATHER SERVICE QUALITY CONTROL***

...OBSERVATIONS IN AND NEAR THE EASTERN PANHANDLE OF NEBRASKA...

CITY           SKY/WX    TMP DP  RH WIND       PRES   REMARKS
PINE RIDGE     SUNNY     70  37  29 VRB3      30.34F
CHADRON        SUNNY     74  38  27 VRB5      30.32F
ALLIANCE       PTSUNNY   71  36  27 VRB3      30.35F
SIDNEY         SUNNY     73  37  27 SE10      30.37F
WHITECLAY        N/A     70  37  30 E3          N/A
RUSHVILLE        N/A     74  23  15 SE7         N/A
LISCO            N/A     75  30  19 E6          N/A
BIG SPRINGS      N/A     69  42  38 E3          N/A
$$

...OBSERVATIONS IN NORTH CENTRAL NEBRASKA...

CITY           SKY/WX    TMP DP  RH WIND       PRES   REMARKS
VALENTINE      SUNNY     72  36  26 NW13      30.32F
THEDFORD       SUNNY     73  41  31 NW7       30.34F
AINSWORTH      SUNNY     69  37  30 NW10      30.32F
O`NEILL        SUNNY     70  46  41 N13G21    30.30F
ORD            SUNNY     72  43  35 NW6G16    30.28F
BROKEN BOW     SUNNY     75  38  26 N8        30.30F
SPRINGVIEW       N/A     70  42  36 W8G16       N/A
ROSE             N/A     74  46  35 W7          N/A
NEWPORT          N/A     72  43  34 W10         N/A
COMSTOCK         N/A     78  39  24 E9          N/A
$$

...OBSERVATIONS IN SOUTHWEST NEBRASKA AND FAR NORTHEAST COLORADO...

CITY           SKY/WX    TMP DP  RH WIND       PRES   REMARKS
WRAY           MOCLDY    76  36  23 E8        30.35F
HOLYOKE        FAIR      77  37  24 CALM      30.35F
IMPERIAL       CLOUDY    72  35  25 SE7       30.34F
OGALLALA       MOSUNNY   74  39  28 CALM      30.34F
NORTH PLATTE   SUNNY     73  39  29 VRB3G16   30.32F
MCCOOK         SUNNY     76  37  24 N8        30.32F
LEXINGTON      SUNNY     73  40  31 N9        30.31F
PAXTON           N/A     72  41  32 CALM        N/A
SUTHERLAND       N/A     80  35  20 NE5         N/A
BRADY            N/A     72  41  32 CALM        N/A
GOTHENBURG       N/A     72  34  25 N6          N/A
CALLAWAY         N/A     71  43  36 NW8         N/A
$$

...SOME WEATHER OBSERVATIONS FROM AROUND THE REGION...

CITY           SKY/WX    TMP DP  RH WIND       PRES   REMARKS
DENVER         CLOUDY    72  48  42 N6        30.33F
LARAMIE        SUNNY     69  43  38 SE20      30.37F
CHEYENNE       SUNNY     67  41  38 S17G26    30.38F
SCOTTSBLUFF    SUNNY     71  39  31 SE13G18   30.35F
RAPID CITY     SUNNY     71  38  29 VRB5      30.33F
PIERRE         SUNNY     70  43  37 VRB7      30.28F
WINNER         FAIR      72  40  31 NW9       30.30F
SIOUX FALLS    MOSUNNY   70  45  40 N10G26    30.23F
OMAHA          MOSUNNY   71  46  40 N21G29    30.21F
GRAND ISLAND   SUNNY     74  42  31 N16       30.28F
KANSAS CITY    MOSUNNY   75  49  39 N13G21    30.17F
WICHITA        MOSUNNY   84  40  21 N15G24    30.20F
HAYS           SUNNY     77  45  31 N10       30.28F
LIBERAL        SUNNY     82  45  26 E12G17    30.27F
GOODLAND       MOSUNNY   73  37  27 SE10      30.36F
$$



USA.gov is the U.S. government's official web portal to all federal, state and local government web resources and services.